| time (UTC) | temp F | wind direction | speed knots | gust knots | rain 1hr in | rain 24hr in | rain mn in | humidity % | barometer mb |
| 20260506201558 | 56 | 311 | 0.0 | 3.5 | 0.00 | 0.45 | 0.45 | 86 | 1007.6 |
| 20260506200152 | 57 | 290 | 0.9 | 2.6 | 0.00 | 0.45 | 0.45 | 83 | 1007.4 |
| 20260506194612 | 57 | 47 | 0.0 | 4.3 | 0.00 | 0.45 | 0.45 | 81 | 1007.1 |
| 20260506191600 | 56 | 38 | 1.7 | 4.3 | 0.00 | 0.45 | 0.45 | 84 | 1006.6 |
| 20260506190124 | 56 | 78 | 0.0 | 0.9 | 0.00 | 0.45 | 0.45 | 84 | 1006.3 |
| 20260506184557 | 57 | 78 | 0.0 | 1.7 | 0.00 | 0.45 | 0.45 | 81 | 1006.0 |
| 20260506183133 | 58 | 78 | 0.0 | 0.9 | 0.00 | 0.45 | 0.45 | 79 | 1005.7 |
| 20260506181557 | 59 | 78 | 2.6 | 6.1 | 0.00 | 0.45 | 0.45 | 76 | 1005.4 |
| 20260506180140 | 60 | 34 | 0.9 | 7.0 | 0.00 | 0.45 | 0.45 | 74 | 1005.2 |
| 20260506174601 | 62 | 115 | 2.6 | 10.4 | 0.00 | 0.45 | 0.45 | 71 | 1004.9 |
| 20260506173132 | 63 | 136 | 2.6 | 7.8 | 0.00 | 0.45 | 0.45 | 67 | 1004.5 |
| 20260506171602 | 64 | 116 | 2.6 | 7.0 | 0.00 | 0.45 | 0.45 | 66 | 1004.3 |
| 20260506170135 | 65 | 93 | 4.3 | 7.0 | 0.00 | 0.45 | 0.45 | 65 | 1004.0 |
| 20260506164559 | 66 | 121 | 1.7 | 5.2 | 0.00 | 0.45 | 0.45 | 67 | 1003.6 |
| 20260506163117 | 66 | 101 | 0.0 | 0.0 | 0.00 | 0.45 | 0.45 | 66 | 1003.6 |
| 20260506161600 | 64 | 45 | 0.0 | 3.5 | 0.00 | 0.45 | 0.45 | 68 | 1003.4 |
| 20260506160131 | 62 | 72 | 0.9 | 4.3 | 0.00 | 0.45 | 0.45 | 72 | 1003.4 |
| 20260506154559 | 62 | 5 | 1.7 | 7.0 | 0.02 | 0.45 | 0.45 | 71 | 1003.7 |
| 20260506153135 | 63 | 346 | 3.5 | 7.8 | 0.09 | 0.45 | 0.45 | 70 | 1003.8 |
| 20260506151558 | 62 | 360 | 5.2 | 8.7 | 0.11 | 0.45 | 0.45 | 76 | 1004.1 |
| 20260506150128 | 60 | 16 | 2.6 | 7.0 | 0.13 | 0.45 | 0.45 | 80 | 1004.0 |
| 20260506144601 | 61 | 5 | 2.6 | 5.2 | 0.11 | 0.43 | 0.43 | 79 | 1004.3 |
| 20260506143136 | 61 | 31 | 0.9 | 5.2 | 0.06 | 0.35 | 0.35 | 79 | 1004.1 |
| 20260506141558 | 62 | 355 | 2.6 | 5.2 | 0.05 | 0.34 | 0.34 | 77 | 1004.1 |
| 20260506140127 | 62 | 77 | 0.9 | 2.6 | 0.04 | 0.32 | 0.32 | 74 | 1004.4 |
| 20260506134618 | 62 | 79 | 0.0 | 4.3 | 0.04 | 0.31 | 0.31 | 75 | 1004.4 |
| 20260506133131 | 62 | 97 | 4.3 | 6.1 | 0.03 | 0.30 | 0.30 | 74 | 1004.4 |
| 20260506131610 | 62 | 90 | 1.7 | 6.1 | 0.03 | 0.28 | 0.28 | 76 | 1004.4 |
| 20260506130137 | 62 | 164 | 2.6 | 6.1 | 0.03 | 0.28 | 0.28 | 73 | 1004.4 |
| 20260506124600 | 63 | 219 | 2.6 | 4.3 | 0.03 | 0.28 | 0.28 | 72 | 1004.4 |
| 20260506123126 | 63 | 119 | 2.6 | 5.2 | 0.03 | 0.27 | 0.27 | 73 | 1004.3 |
| 20260506121607 | 62 | 71 | 0.9 | 5.2 | 0.03 | 0.26 | 0.26 | 74 | 1004.4 |
| 20260506120133 | 61 | 219 | 0.9 | 4.3 | 0.04 | 0.25 | 0.25 | 80 | 1004.5 |
| 20260506114559 | 60 | 157 | 0.0 | 4.3 | 0.05 | 0.24 | 0.24 | 80 | 1004.4 |
| 20260506113135 | 59 | 207 | 0.9 | 4.3 | 0.05 | 0.24 | 0.24 | 81 | 1004.5 |
| 20260506111613 | 59 | 177 | 0.9 | 7.8 | 0.05 | 0.23 | 0.23 | 80 | 1004.4 |
| 20260506110124 | 59 | 142 | 6.1 | 8.7 | 0.03 | 0.21 | 0.21 | 80 | 1004.5 |
| 20260506104605 | 59 | 118 | 4.3 | 9.6 | 0.02 | 0.20 | 0.20 | 81 | 1004.7 |
| 20260506103131 | 59 | 94 | 2.6 | 7.0 | 0.02 | 0.20 | 0.19 | 83 | 1004.7 |
| 20260506101558 | 59 | 90 | 0.9 | 6.1 | 0.01 | 0.19 | 0.18 | 85 | 1004.7 |
| 20260506100137 | 57 | 150 | 1.7 | 6.1 | 0.02 | 0.19 | 0.18 | 88 | 1004.7 |
| 20260506094600 | 55 | 216 | 1.7 | 4.3 | 0.01 | 0.20 | 0.17 | 92 | 1004.9 |
| 20260506093127 | 54 | 154 | 0.9 | 4.3 | 0.02 | 0.20 | 0.17 | 93 | 1005.1 |
| 20260506091600 | 53 | 49 | 0.0 | 2.6 | 0.02 | 0.20 | 0.17 | 94 | 1005.2 |
| 20260506090131 | 52 | 24 | 0.0 | 1.7 | 0.02 | 0.19 | 0.17 | 94 | 1005.3 |
| 20260506084605 | 52 | 24 | 0.9 | 4.3 | 0.02 | 0.20 | 0.17 | 93 | 1005.4 |
| 20260506083126 | 51 | 32 | 0.9 | 2.6 | 0.02 | 0.20 | 0.16 | 93 | 1005.5 |
| 20260506081559 | 51 | 32 | 0.9 | 3.5 | 0.02 | 0.19 | 0.15 | 92 | 1005.5 |
| 20260506073144 | 52 | 275 | 0.9 | 4.3 | 0.02 | 0.20 | 0.13 | 92 | 1005.4 |
| 20260506071559 | 51 | 229 | 0.0 | 3.5 | 0.02 | 0.20 | 0.13 | 94 | 1005.4 |
| 20260506070139 | 51 | 325 | 2.6 | 8.7 | 0.02 | 0.20 | 0.13 | 90 | 1005.4 |
| 20260506061559 | 51 | 15 | 2.6 | 5.2 | 0.02 | 0.22 | 0.11 | 95 | 1005.8 |
| 20260506060130 | 52 | 275 | 0.0 | 1.7 | 0.02 | 0.21 | 0.10 | 97 | 1005.9 |
| 20260506044602 | 52 | 126 | 0.0 | 2.6 | 0.02 | 0.28 | 0.08 | 96 | 1006.2 |
| 20260506043130 | 52 | 144 | 0.9 | 2.6 | 0.02 | 0.27 | 0.07 | 96 | 1006.3 |
| 20260506041614 | 52 | 107 | 2.6 | 6.1 | 0.02 | 0.27 | 0.07 | 96 | 1006.3 |
| 20260506040140 | 52 | 114 | 4.3 | 7.0 | 0.02 | 0.26 | 0.06 | 96 | 1006.3 |
| 20260506034601 | 52 | 119 | 2.6 | 5.2 | 0.02 | 0.30 | 0.06 | 96 | 1006.3 |
| 20260506033126 | 52 | 69 | 2.6 | 5.2 | 0.01 | 0.28 | 0.06 | 96 | 1006.5 |
| 20260506031600 | 52 | 94 | 0.9 | 3.5 | 0.02 | 0.28 | 0.06 | 96 | 1006.7 |
| 20260506030137 | 52 | 103 | 1.7 | 5.2 | 0.01 | 0.28 | 0.05 | 96 | 1007.0 |
| 20260506024606 | 52 | 119 | 0.0 | 0.0 | 0.01 | 0.28 | 0.05 | 96 | 1007.2 |
| 20260506023124 | 52 | 99 | 0.0 | 0.0 | 0.02 | 0.28 | 0.05 | 96 | 1007.3 |
| 20260506021559 | 52 | 97 | 0.0 | 0.0 | 0.01 | 0.28 | 0.04 | 96 | 1007.3 |
| 20260506020001 | 52 | 97 | 0.0 | 0.0 | 0.02 | 0.28 | 0.04 | 96 | 1007.5 |
| 20260506014613 | 52 | 97 | 0.0 | 0.0 | 0.02 | 0.28 | 0.04 | 96 | 1007.6 |
| 20260506013139 | 52 | 97 | 0.0 | 0.0 | 0.02 | 0.28 | 0.03 | 95 | 1007.7 |
| 20260506011628 | 52 | 97 | 0.0 | 0.0 | 0.02 | 0.28 | 0.03 | 95 | 1007.9 |
| 20260506010001 | 52 | 97 | 0.0 | 0.0 | 0.02 | 0.27 | 0.02 | 95 | 1008.3 |
| 20260506004606 | 52 | 97 | 0.0 | 0.0 | 0.01 | 0.26 | 0.02 | 95 | 1008.5 |
| 20260506003133 | 52 | 97 | 0.0 | 0.0 | 0.01 | 0.26 | 0.02 | 94 | 1008.7 |
| 20260506001604 | 53 | 97 | 0.0 | 0.0 | 0.01 | 0.26 | 0.02 | 94 | 1008.8 |
| 20260506000139 | 53 | 97 | 0.0 | 0.0 | 0.01 | 0.25 | 0.01 | 94 | 1009.0 |
| 20260505234608 | 53 | 97 | 0.0 | 0.0 | 0.01 | 0.25 | 0.01 | 93 | 1009.2 |
| 20260505233128 | 53 | 97 | 0.0 | 0.9 | 0.01 | 0.25 | 0.01 | 93 | 1009.1 |
| 20260505231613 | 53 | 97 | 0.9 | 2.6 | 0.01 | 0.25 | 0.01 | 93 | 1009.3 |
| 20260505230008 | 53 | 130 | 0.0 | 2.6 | 0.00 | 0.24 | 0.00 | 93 | 1009.6 |
| 20260505224600 | 53 | 130 | 0.9 | 3.5 | 0.00 | 0.24 | 0.24 | 92 | 1009.7 |
| 20260505223122 | 53 | 71 | 0.9 | 2.6 | 0.00 | 0.24 | 0.24 | 92 | 1009.5 |
| 20260505221603 | 53 | 68 | 0.0 | 0.0 | 0.00 | 0.24 | 0.24 | 92 | 1009.6 |
| 20260505220130 | 53 | 68 | 0.0 | 0.0 | 0.00 | 0.24 | 0.24 | 92 | 1009.8 |
| 20260505214559 | 53 | 68 | 0.0 | 0.0 | 0.00 | 0.24 | 0.24 | 92 | 1010.0 |
| 20260505213142 | 53 | 69 | 0.0 | 1.7 | 0.00 | 0.24 | 0.24 | 92 | 1010.0 |
| 20260505211559 | 53 | 69 | 0.0 | 0.9 | 0.00 | 0.24 | 0.24 | 92 | 1010.3 |
| 20260505210124 | 53 | 69 | 0.0 | 0.9 | 0.00 | 0.24 | 0.24 | 92 | 1010.2 |
| 20260505204602 | 53 | 68 | 0.0 | 1.7 | 0.00 | 0.24 | 0.24 | 92 | 1010.4 |